TimeCST,TemperatureF,Dew PointF,Humidity,Sea Level PressureIn,VisibilityMPH,Wind Direction,Wind SpeedMPH,Gust SpeedMPH,PrecipitationIn,Events,Conditions,WindDirDegrees,DateUTC
12:55 AM,37.4,35.1,91,30.32,10.0,North,10.4,-,N/A,,Overcast,10,2013-01-04 06:55:00
1:55 AM,38.3,34.7,87,30.33,10.0,North,10.4,-,N/A,,Overcast,10,2013-01-04 07:55:00
2:55 AM,38.5,33.8,83,30.32,10.0,NNE,8.1,-,N/A,,Mostly Cloudy,20,2013-01-04 08:55:00
3:55 AM,37.4,33.6,86,30.31,10.0,North,11.5,-,N/A,,Mostly Cloudy,10,2013-01-04 09:55:00
4:55 AM,36.9,33.1,86,30.32,10.0,North,9.2,-,N/A,,Mostly Cloudy,10,2013-01-04 10:55:00
5:55 AM,35.2,32.5,90,30.35,10.0,NNE,6.9,-,N/A,,Clear,20,2013-01-04 11:55:00
6:55 AM,34.9,32.4,91,30.37,10.0,North,8.1,-,N/A,,Clear,10,2013-01-04 12:55:00
7:55 AM,39.0,33.8,82,30.38,10.0,NNE,9.2,-,N/A,,Clear,20,2013-01-04 13:55:00
8:55 AM,42.8,34.3,72,30.39,10.0,NNE,9.2,-,N/A,,Clear,20,2013-01-04 14:55:00
9:55 AM,47.1,35.6,64,30.40,10.0,NNE,10.4,-,N/A,,Clear,20,2013-01-04 15:55:00
10:20 AM,48.2,35.6,62,30.39,10.0,NNE,5.8,-,N/A,,Light Drizzle,20,2013-01-04 16:20:00
10:29 AM,48.2,35.6,62,30.40,10.0,North,9.2,-,N/A,,Clear,10,2013-01-04 16:29:00
10:55 AM,50.5,36.7,59,30.40,10.0,North,6.9,-,0.00,,Clear,10,2013-01-04 16:55:00
11:31 AM,51.8,37.4,58,30.38,10.0,North,8.1,-,N/A,,Light Drizzle,10,2013-01-04 17:31:00
11:39 AM,51.8,37.4,58,30.38,10.0,Variable,4.6,-,N/A,,Partly Cloudy,0,2013-01-04 17:39:00
11:55 AM,53.1,37.4,55,30.37,10.0,North,8.1,-,0.00,,Clear,350,2013-01-04 17:55:00
12:43 PM,53.6,37.4,54,30.34,10.0,North,9.2,-,N/A,Rain,Light Rain,360,2013-01-04 18:43:00
12:44 PM,53.6,37.4,54,30.34,10.0,North,9.2,-,N/A,,Clear,360,2013-01-04 18:44:00
12:55 PM,54.3,37.8,54,30.34,10.0,North,8.1,-,0.00,,Clear,10,2013-01-04 18:55:00
1:55 PM,55.4,37.0,50,30.32,10.0,North,11.5,-,N/A,,Clear,10,2013-01-04 19:55:00
2:55 PM,56.3,36.9,48,30.31,10.0,NNE,10.4,-,N/A,,Clear,20,2013-01-04 20:55:00
3:55 PM,54.9,37.2,51,30.33,10.0,North,8.1,-,N/A,,Clear,10,2013-01-04 21:55:00
4:55 PM,51.1,39.9,66,30.34,10.0,North,3.5,-,N/A,,Clear,10,2013-01-04 22:55:00
5:55 PM,46.2,41.7,84,30.35,10.0,North,4.6,-,N/A,,Clear,360,2013-01-04 23:55:00
6:55 PM,46.2,41.9,85,30.37,10.0,North,4.6,-,N/A,,Clear,350,2013-01-05 00:55:00
7:55 PM,44.4,42.3,92,30.39,10.0,NNW,3.5,-,N/A,,Clear,340,2013-01-05 01:55:00
8:55 PM,42.8,39.9,90,30.37,10.0,North,6.9,-,N/A,,Clear,360,2013-01-05 02:55:00
9:55 PM,42.3,39.0,88,30.36,10.0,North,9.2,-,N/A,,Clear,360,2013-01-05 03:55:00
10:55 PM,43.9,36.7,76,30.36,10.0,North,6.9,-,N/A,,Clear,360,2013-01-05 04:55:00
11:55 PM,43.3,36.1,76,30.35,10.0,North,6.9,-,N/A,,Clear,360,2013-01-05 05:55:00